Location: Oroua River
(40.4333°S, 175.4333°E)
Time: 01:49:11
(UTC+00:00)

Cosmos 1459 Rocket - Pass Details

Date: 03 February 2023
Orbit: 936 x 1000 km, 83.0° (Epoch: 31 March)

Event Time Altitude Azimuth Distance (km) Brightness Sun altitude
Exits shadow 13:35:10 50° 89° (E) 1,194 4.4 -31.2°
Drops below altitude 10° 13:41:02 10° 162° (SSE) 2,680 7.2 -30.9°
Sets 13:43:35 0° 167° (SSE) 3,631 8.1 -30.7°
